Weather History for KOCW - June, 2013

Change the Weather History Date:

Friday, June 14, 2013

  Actual Average (KEWN) Record (KEWN)
Temperature  
Mean Temperature 70 °F 77 °F  
Max Temperature 78 °F 87 °F 97 °F (1958)
Min Temperature 63 °F 67 °F 53 °F (1985)
Degree Days  
Heating Degree Days 0 0  
Month to date heating degree days 0  
Since 1 June heating degree days 0  
Since 1 July heating degree days 2701  
Cooling Degree Days 6 12  
Month to date cooling degree days 147  
Year to date cooling degree days 390  
Since 1 June cooling degree days 147  
Growing Degree Days 20 (Base 50)    
Moisture  
Dew Point 59 °F    
Average Humidity 64    
Maximum Humidity 84    
Minimum Humidity 43    
Precipitation  
Precipitation 0.00 in 0.15 in 1.83 in (2001)
Month to date precipitation 2.08  
Year to date precipitation 21.47  
Snow  
Snow 0.00 in - - ()
Month to date snowfall  
Since 1 July snowfall  
Snow Depth -    
Sea Level Pressure  
Sea Level Pressure 29.85 in    
Wind  
Wind Speed 7 mph (NNW)    
Max Wind Speed 16 mph    
Max Gust Speed 24 mph    
Visibility 10 miles    
Events      
T = Trace of Precipitation, MM = Missing Value Source: NWS Daily Summary

Daily Weather History Graph

Daily Weather History Graph

Search for Another Location

Airport or City:

Trip Planner

Search our weather history database for the weather conditions in past years. The results will help you decide how hot, cold, wet, or windy it might be!

Date:

Astronomy

Jun. 14, 2013 Rise Set
Actual Time 5:52 AM EDT 8:25 PM EDT
Civil Twilight 5:22 AM EDT 8:55 PM EDT
Nautical Twilight 4:45 AM EDT 9:32 PM EDT
Astronomical Twilight 4:03 AM EDT 10:13 PM EDT
Moon 11:15 AM EDT (6/14) No Moon Set
Length of Visible Light 15h 32m
Length of Day
14h 32m
Waxing Crescent, 30% of the Moon is Illuminated
Jun 14
Waxing Crescent
Jun 16
First Quarter
Jun 23
Full
Jun 30
Last Quarter
Jul 8
New

Hourly Weather History & Observations

Time (EDT) Temp. Dew Point Humidity Pressure Visibility Wind Dir Wind Speed Gust Speed Precip Events Conditions
1:35 AM 73.0 °F 67.6 °F 83% 29.70 in 10.0 mi SSW 5.8 mph - N/A   Scattered Clouds
1:55 AM 73.0 °F 67.6 °F 83% 29.71 in 10.0 mi SW 5.8 mph - N/A   Clear
2:15 AM 73.0 °F 67.6 °F 83% 29.71 in 10.0 mi West 3.5 mph - N/A   Clear
2:35 AM 73.0 °F 67.6 °F 83% 29.70 in 10.0 mi Calm Calm - N/A   Clear
2:55 AM 73.0 °F 67.6 °F 83% 29.70 in 10.0 mi WNW 3.5 mph - N/A   Clear
3:15 AM 73.0 °F 67.6 °F 83% 29.70 in 10.0 mi WNW 6.9 mph - N/A   Mostly Cloudy
3:35 AM 73.0 °F 67.6 °F 83% 29.70 in 10.0 mi NW 5.8 mph - N/A   Overcast
3:55 AM 73.0 °F 67.6 °F 83% 29.71 in 10.0 mi NW 4.6 mph - N/A   Overcast
4:15 AM 73.0 °F 68.0 °F 84% 29.71 in 10.0 mi NW 4.6 mph - N/A   Overcast
4:35 AM 73.0 °F 68.0 °F 84% 29.71 in 10.0 mi Calm Calm - N/A   Overcast
4:55 AM 71.2 °F 66.0 °F 84% 29.71 in 10.0 mi WNW 3.5 mph - N/A   Mostly Cloudy
5:15 AM 72.9 °F 67.8 °F 84% 29.72 in 10.0 mi WNW 3.5 mph - N/A   Overcast
5:35 AM 70.7 °F 65.3 °F 83% 29.72 in 10.0 mi NW 4.6 mph - N/A   Overcast
5:55 AM 70.7 °F 64.9 °F 82% 29.73 in 10.0 mi NW 6.9 mph - N/A   Mostly Cloudy
6:15 AM 68.2 °F 61.9 °F 80% 29.73 in 10.0 mi NW 4.6 mph - N/A   Scattered Clouds
6:35 AM 68.0 °F 61.7 °F 80% 29.74 in 10.0 mi NW 3.5 mph - N/A   Clear
6:55 AM 68.0 °F 61.5 °F 80% 29.76 in 10.0 mi NW 3.5 mph - N/A   Clear
7:15 AM 68.2 °F 61.0 °F 78% 29.76 in 10.0 mi WNW 4.6 mph - N/A   Clear
7:35 AM 70.7 °F 62.4 °F 75% 29.77 in 10.0 mi NW 5.8 mph - N/A   Clear
7:55 AM 70.7 °F 61.7 °F 73% 29.77 in 10.0 mi NW 6.9 mph - N/A   Clear
8:15 AM 73.0 °F 63.1 °F 71% 29.77 in 10.0 mi NNW 11.5 mph 17.3 mph N/A   Clear
8:35 AM 73.0 °F 61.7 °F 67% 29.78 in 10.0 mi NNW 10.4 mph 19.6 mph N/A   Clear
8:55 AM 73.0 °F 61.3 °F 67% 29.79 in 10.0 mi NNW 10.4 mph - N/A   Clear
9:15 AM 73.0 °F 60.1 °F 64% 29.80 in 10.0 mi North 15.0 mph 19.6 mph N/A   Clear
9:35 AM 73.0 °F 57.6 °F 58% 29.81 in 10.0 mi North 11.5 mph 18.4 mph N/A   Clear
9:55 AM 73.0 °F 56.8 °F 57% 29.81 in 10.0 mi North 13.8 mph 20.7 mph N/A   Clear
10:15 AM 73.0 °F 56.1 °F 55% 29.82 in 10.0 mi NNW 16.1 mph 20.7 mph N/A   Clear
10:35 AM 74.1 °F 55.4 °F 52% 29.82 in 10.0 mi NNW 16.1 mph 20.7 mph N/A   Clear
10:55 AM 74.3 °F 55.4 °F 52% 29.83 in 10.0 mi NNW 16.1 mph 23.0 mph N/A   Clear
11:15 AM 76.3 °F 57.7 °F 53% 29.84 in 10.0 mi North 16.1 mph 23.0 mph N/A   Clear
11:35 AM 78.1 °F 59.0 °F 52% 29.84 in 10.0 mi North 15.0 mph 20.7 mph N/A   Scattered Clouds
11:55 AM 78.1 °F 57.7 °F 49% 29.86 in 10.0 mi NNW 15.0 mph 24.2 mph N/A   Clear
12:15 PM 74.7 °F 57.4 °F 55% 29.86 in 10.0 mi NNW 10.4 mph - N/A   Scattered Clouds
12:35 PM 75.2 °F 57.0 °F 53% 29.86 in 10.0 mi NNW 12.7 mph 21.9 mph N/A   Scattered Clouds
12:55 PM 74.7 °F 55.9 °F 52% 29.87 in 10.0 mi NNW 8.1 mph 18.4 mph N/A   Scattered Clouds
1:15 PM 77.0 °F 58.1 °F 52% 29.88 in 10.0 mi North 10.4 mph 23.0 mph N/A   Scattered Clouds
1:35 PM 78.1 °F 57.6 °F 49% 29.88 in 10.0 mi North 15.0 mph 23.0 mph N/A   Scattered Clouds
1:55 PM 78.1 °F 57.7 °F 49% 29.88 in 10.0 mi NW 9.2 mph 18.4 mph N/A   Scattered Clouds
2:15 PM 75.4 °F 56.3 °F 51% 29.88 in 10.0 mi North 9.2 mph - N/A   Mostly Cloudy
2:35 PM 78.1 °F 58.3 °F 50% 29.88 in 10.0 mi NNW 10.4 mph 19.6 mph N/A   Scattered Clouds
2:55 PM 78.1 °F 57.4 °F 49% 29.88 in 10.0 mi North 13.8 mph - N/A   Scattered Clouds
3:15 PM 78.1 °F 56.3 °F 47% 29.90 in 10.0 mi North 11.5 mph 17.3 mph N/A   Scattered Clouds
3:35 PM 78.1 °F 55.4 °F 45% 29.90 in 10.0 mi North 12.7 mph 19.6 mph N/A   Scattered Clouds
3:55 PM 78.1 °F 54.7 °F 44% 29.90 in 10.0 mi NNW 9.2 mph 18.4 mph N/A   Scattered Clouds
4:15 PM 78.1 °F 55.9 °F 46% 29.90 in 10.0 mi North 11.5 mph 17.3 mph N/A   Scattered Clouds
4:35 PM 78.1 °F 57.6 °F 49% 29.91 in 10.0 mi NNW 11.5 mph - N/A   Scattered Clouds
4:55 PM 78.1 °F 56.5 °F 47% 29.91 in 10.0 mi NNW 9.2 mph 16.1 mph N/A   Scattered Clouds
5:15 PM 78.1 °F 54.9 °F 45% 29.91 in 10.0 mi North 15.0 mph - N/A   Clear
5:35 PM 78.1 °F 55.4 °F 45% 29.92 in 10.0 mi NNW 11.5 mph - N/A   Scattered Clouds
5:55 PM 78.1 °F 54.7 °F 44% 29.92 in 10.0 mi North 16.1 mph 20.7 mph N/A   Scattered Clouds
6:15 PM 78.1 °F 54.0 °F 43% 29.92 in 10.0 mi North 12.7 mph - N/A   Scattered Clouds
6:35 PM 78.1 °F 57.0 °F 48% 29.93 in 10.0 mi NNE 5.8 mph - N/A   Scattered Clouds
6:55 PM 75.9 °F 56.3 °F 50% 29.93 in 10.0 mi North 6.9 mph - N/A   Clear
7:15 PM 75.6 °F 55.0 °F 49% 29.94 in 10.0 mi North 9.2 mph - N/A   Clear
7:35 PM 74.1 °F 55.6 °F 52% 29.95 in 10.0 mi North 8.1 mph - N/A   Clear
7:55 PM 73.0 °F 53.6 °F 50% 29.96 in 10.0 mi North 5.8 mph - N/A   Clear
8:15 PM 73.0 °F 57.4 °F 58% 29.96 in 10.0 mi NNE 4.6 mph - N/A   Clear
8:35 PM 73.0 °F 58.5 °F 60% 29.97 in 10.0 mi NNE 3.5 mph - N/A   Clear
8:55 PM 70.7 °F 56.1 °F 60% 29.98 in 10.0 mi NE 3.5 mph - N/A   Clear
9:15 PM 70.7 °F 57.9 °F 64% 29.98 in 10.0 mi ENE 3.5 mph - N/A   Clear
9:35 PM 68.0 °F 57.2 °F 68% 29.99 in 10.0 mi Calm Calm - N/A   Clear
9:55 PM 66.0 °F 57.6 °F 74% 29.99 in 10.0 mi Calm Calm - N/A   Clear
10:15 PM 65.7 °F 56.5 °F 72% 30.00 in 10.0 mi Calm Calm - N/A   Clear
10:35 PM 64.8 °F 56.3 °F 74% 30.01 in 10.0 mi Calm Calm - N/A   Clear
10:55 PM 64.4 °F 56.1 °F 74% 30.01 in 10.0 mi Calm Calm - N/A   Clear
11:15 PM 63.1 °F 56.3 °F 78% 30.01 in 10.0 mi Calm Calm - N/A   Clear
11:35 PM 63.0 °F 56.7 °F 80% 30.02 in 10.0 mi Calm Calm - N/A   Clear
11:55 PM 63.0 °F 56.8 °F 80% 30.03 in 10.0 mi Calm Calm - N/A   Clear